MPEC 2006-X37 : 2006 XJ1

The following Minor Planet Electronic Circular may be linked-to from your own Web pages, but must not otherwise be redistributed electronically.


Read MPEC 2006-X36 Read MPEC 2006-X38


M.P.E.C. 2006-X37                                Issued 2006 Dec. 12, 00:25 UT

     The Minor Planet Electronic Circulars contain information on unusual
         minor planets and routine data on comets.  They are published
   on behalf of Commission 20 of the International Astronomical Union by the
          Minor Planet Center, Smithsonian Astrophysical Observatory,
                          Cambridge, MA 02138, U.S.A.

             Prepared using the Tamkin Foundation Computer Network

                              MPC@CFA.HARVARD.EDU
          URL http://cfa-www.harvard.edu/iau/mpc.html  ISSN 1523-6714

                                   2006 XJ1

Observations:
     K06X01J* C2006 12 11.30424 07 30 42.69 +43 35 18.1          18.1   EX037704
     K06X01J  C2006 12 11.31613 07 30 38.98 +43 33 47.0          18.4   EX037704
     K06X01J  C2006 12 11.32802 07 30 35.27 +43 32 15.7          18.2   EX037704
     K06X01J  C2006 12 11.33992 07 30 31.52 +43 30 43.8          18.5   EX037704
     K06X01J  C2006 12 11.35201 07 30 27.66 +43 29 09.8          18.5   EX037704
     K06X01J  C2006 12 11.95201 07 27 41.27 +42 10 03.5          18.0 R EX037473
     K06X01J  C2006 12 11.95417 07 27 40.60 +42 09 46.7          18.0 R EX037473
     K06X01J  C2006 12 11.95857 07 27 39.29 +42 09 12.2          18.0 R EX037473
     K06X01J  C2006 12 11.95980 07 27 39.46 +42 08 51.5                 EX037J95
     K06X01J  C2006 12 11.96052 07 27 38.72 +42 08 57.2          18.1 R EX037473
     K06X01J  C2006 12 11.96154 07 27 38.95 +42 08 37.9                 EX037J95
     K06X01J  C2006 12 11.96290 07 27 38.01 +42 08 38.4          18.0 R EX037473
     K06X01J  C2006 12 11.96328 07 27 38.42 +42 08 24.4          18.1 R EX037J95
     K06X01J  C2006 12 11.97181 07 27 35.25 +42 07 29.0          17.8 V EX037595
     K06X01J  C2006 12 11.97581 07 27 34.09 +42 06 57.6          17.8 V EX037595
     K06X01J  C2006 12 11.97980 07 27 32.88 +42 06 25.8          18.4 V EX037595

Observer details:
473 Remanzacco.  Observers G. Sostero, E. Guido.  0.45-m f/4.4 Newtonian
    reflector + CCD.
595 Farra d'Isonzo.  Observers G. Lombardi, E. Pettarin.  0.40-m f/4.5
    reflector + CCD.
704 Lincoln Laboratory ETS, New Mexico.  Observers M. Bezpalko, D. Torres,
    R. Kracke, G. Spitz, J. Kistler.  Measurers J. Stuart, S. Scruggs.  1.0-m
    f/2.15 reflector + CCD.
J95 Great Shefford.  Observer P. Birtwhistle.  0.40-m f/6.0 Schmidt-Cassegrain
    + CCD.

Orbital elements:
2006 XJ1                                                 Earth MOID = 0.1113 AU
Epoch 2006 Sept. 22.0 TT = JDT 2454000.5                MPC
M 331.75306              (2000.0)            P               Q
n   0.69253902     Peri.  133.81949     +0.69340707     -0.65838888
a   1.2652409      Node   269.70989     +0.54801496     +0.74568610
e   0.1660969      Incl.   17.02373     +0.46783142     +0.10235390
P   1.42           H   21.2           G   0.15           U   9
Residuals in seconds of arc
061211 704  0.2-  0.2-    061211 473  0.1-  0.0     061211 J95  0.2-  0.0
061211 704  0.0   0.0     061211 473  0.1+  0.1-    061211 595  0.4-  0.2+
061211 704  0.2+  0.2+    061211 J95  0.0   0.0     061211 595  0.2+  0.2+
061211 704  0.2+  0.2+    061211 473  0.3+  0.2+    061211 595  0.2+  0.2-
061211 704  0.3-  0.2-    061211 J95  0.0   0.1-
061211 473  0.1+  0.1-    061211 473  0.3+  0.0

Ephemeris:
2006 XJ1                 a,e,i = 1.27, 0.17, 17                  q = 1.0551
Date    TT    R. A. (2000) Decl.     Delta      r     Elong.  Phase     V
2006 12 11    07 32.11   +44 14.6    0.124    1.087   144.1    32.0    18.2
2006 12 21    06 51.52   +21 11.4    0.124    1.105   166.8    11.8    17.6
2006 12 31    06 24.61   +02 12.7    0.150    1.125   158.8    18.5    18.3
2007 01 10    06 09.31   -08 40.9    0.195    1.147   144.3    30.0    19.2
2007 01 20    06 02.87   -13 55.3    0.248    1.171   134.3    37.0    20.0
2007 01 30    06 03.37   -16 00.2    0.307    1.196   127.2    41.0    20.6
2007 02 09    06 09.17   -16 23.4    0.369    1.221   121.7    43.4    21.1
2007 02 19    06 19.06   -15 50.5    0.433    1.247   117.1    44.8    21.6
2007 03 01    06 32.32   -14 48.7    0.499    1.273   113.2    45.7    22.0

Timothy B. Spahr             (C) Copyright 2006 MPC           M.P.E.C. 2006-X37

Read MPEC 2006-X36 Read MPEC 2006-X38


Our Web policy. Index to the CBAT/MPC/ICQ pages.

MPC

Valid HTML 4.01!